Content
SEND FEEDBACK

Daily
Averages
Monthly
Summary
United States of America

IDA GROVE, IOWA


Home > North America > United States > Iowa
Elevation: 1343 feet     Latitude: 42 24N     Longitude: 095 31W

WEATHER
 
SELECT A DAY
Number of Records: 415,845;   Date Range: 4/23/95 - 12/18/14
 
SHARE

PRINT THIS DATA

[ ← Previous Day ]
WEATHER ALMANAC - JANUARY 23, 2013
[ Next Day → ]
[ °C ]   °F
Weather ElementAverageHighLow
Temperature11.4 °F21.2 °F (12:35 pm)-2.2 °F (11:35 pm)
Dewpoint3.8 °F14 °F (12:15 pm)-13 °F (11:15 pm)
Humidity71.8 %86 % (9:35 am)55 % (11:15 pm)
Barometer30.25 in30.50 in (11:55 pm)30.08 in (4:35 am)
Wind Speed15.5 mph24.2 mph (7:55 pm)
Wind Gust32.2 mph (8:15 pm)
Weather ElementAverage
Visibility9.9 mi
Wind DirectionWSW (261.5 °)

Weather ElementTotal
Precipitation---
Heating Degree Days55.5 (Base 65)
Averaged from 68 records on January 23, 2013
WEATHER CONDITIONS BREAKOUT
WIND DIRECTION BREAKOUT
WEATHER BY HOUR - JANUARY 23, 2013
[ °C ]   °F
Local TimeTemperatureDewpointHumidityBarometerVisibilityWind DirectionWind SpeedGust SpeedPrecipitationEventsConditions
12:35 AM14.0 °F5.0 °F67 %30.15 in10.0 miSSW (200°)15.0 mphOvercast
12:55 AM14.0 °F6.8 °F73 %30.14 in10.0 miSSW (200°)13.8 mphOvercast
1:35 AM14.0 °F6.8 °F73 %30.14 inSSW (200°)12.7 mphOvercast
1:55 AM12.2 °F6.8 °F79 %30.13 in10.0 miSSW (200°)11.5 mphOvercast
2:15 AM12.2 °F5.0 °F73 %30.13 in10.0 miSSW (200°)10.4 mphOvercast
2:35 AM10.4 °F3.2 °F73 %30.13 in10.0 miSSW (200°)9.2 mphScattered Clouds
2:55 AM8.6 °F3.2 °F79 %30.12 in10.0 miSouth (190°)9.2 mphClear
3:55 AM10.4 °F5.0 °F79 %30.10 in10.0 miSSW (210°)12.7 mphClear
4:15 AM12.2 °F5.0 °F73 %30.09 in10.0 miSSW (210°)11.5 mphClear
4:35 AM12.2 °F5.0 °F73 %30.08 in10.0 miSW (220°)11.5 mphClear
4:55 AM12.2 °F5.0 °F73 %30.09 in10.0 miSW (230°)11.5 mphClear
5:15 AM12.2 °F5.0 °F73 %30.09 in10.0 miSW (230°)12.7 mphClear
5:35 AM12.2 °F5.0 °F73 %30.10 in10.0 miWSW (240°)10.4 mphClear
5:55 AM10.4 °F5.0 °F79 %30.11 in10.0 miWest (260°)8.1 mphClear
6:15 AM10.4 °F5.0 °F79 %30.11 in10.0 miWest (260°)8.1 mphClear
6:35 AM8.6 °F5.0 °F85 %30.12 in10.0 miWest (280°)10.4 mphClear
6:55 AM10.4 °F5.0 °F79 %30.11 in10.0 miWest (270°)11.5 mphClear
7:15 AM8.6 °F5.0 °F85 %30.12 in10.0 miWest (280°)11.5 mphClear
7:35 AM8.6 °F5.0 °F85 %30.12 in10.0 miWest (280°)12.7 mphClear
7:55 AM10.4 °F5.0 °F79 %30.13 in10.0 miWNW (290°)11.5 mphClear
8:15 AM12.2 °F6.8 °F79 %30.12 in10.0 miNW (320°)12.7 mphClear
8:35 AM12.2 °F8.6 °F85 %30.13 in10.0 miNW (320°)15.0 mphClear
8:55 AM14.0 °F8.6 °F79 %30.14 in10.0 miNNW (330°)16.1 mphClear
9:15 AM12.2 °F8.6 °F85 %30.15 in10.0 miNNW (330°)13.8 mphClear
9:35 AM14.0 °F10.4 °F86 %30.16 in10.0 miNNW (340°)11.5 mphClear
9:55 AM15.8 °F10.4 °F79 %30.17 in10.0 miNNW (340°)15.0 mphClear
10:15 AM17.6 °F10.4 °F73 %30.18 in10.0 miNorth (350°)17.3 mph23.0 mphClear
10:35 AM17.6 °F12.2 °F79 %30.19 in10.0 miNNW (340°)16.1 mphClear
10:55 AM17.6 °F12.2 °F79 %30.20 in10.0 miNNW (330°)15.0 mphClear
11:15 AM19.4 °F12.2 °F74 %30.21 in10.0 miNNW (330°)15.0 mphPartly Cloudy
11:35 AM19.4 °F12.2 °F74 %30.22 in10.0 miNNW (330°)15.0 mphMostly Cloudy
11:55 AM19.4 °F12.2 °F74 %30.22 in10.0 miNW (320°)16.1 mphMostly Cloudy
12:15 PM19.4 °F14.0 °F80 %30.22 in9.0 miNNW (330°)13.8 mphMostly Cloudy
12:35 PM21.2 °F14.0 °F74 %30.22 in10.0 miNW (320°)15.0 mphMostly Cloudy
12:55 PM21.2 °F14.0 °F74 %30.22 in10.0 miNW (320°)12.7 mph19.6 mphScattered Clouds
1:15 PM21.2 °F14.0 °F74 %30.22 in10.0 miNW (320°)17.3 mphMostly Cloudy
1:35 PM21.2 °F14.0 °F74 %30.23 in9.0 miNW (320°)18.4 mphMostly Cloudy
1:55 PM21.2 °F14.0 °F74 %30.23 in9.0 miNW (320°)17.3 mph24.2 mphSnowLight Snow
2:15 PM21.2 °F12.2 °F68 %30.23 in10.0 miNorth (350°)18.4 mphSnowLight Snow
2:35 PM21.2 °F14.0 °F74 %30.24 in8.0 miNNW (340°)18.4 mphSnowLight Snow
2:55 PM19.4 °F12.2 °F74 %30.25 in9.0 miNNW (340°)19.6 mphSnowLight Snow
3:15 PM19.4 °F10.4 °F68 %30.25 in10.0 miNorth (350°)21.9 mphPartly Cloudy
3:35 PM19.4 °F10.4 °F68 %30.26 in10.0 miNorth (350°)19.6 mph26.5 mphMostly Cloudy
3:55 PM17.6 °F10.4 °F73 %30.27 in9.0 miNNW (340°)21.9 mphSnowLight Snow
4:15 PM17.6 °F6.8 °F63 %30.28 in10.0 miNorth (350°)20.7 mph26.5 mphScattered Clouds
4:35 PM15.8 °F6.8 °F68 %30.31 in10.0 miNorth (350°)18.4 mphMostly Cloudy
4:55 PM14.0 °F5.0 °F67 %30.32 in10.0 miNorth (350°)18.4 mph26.5 mphMostly Cloudy
5:15 PM14.0 °F3.2 °F62 %30.33 in10.0 miNorth (350°)17.3 mphPartly Cloudy
5:35 PM12.2 °F3.2 °F67 %30.34 in10.0 miNorth (360°)13.8 mph23.0 mphClear
5:55 PM10.4 °F1.4 °F67 %30.36 in10.0 miNorth (360°)18.4 mphClear
6:15 PM8.6 °F-0.4 °F67 %30.37 in10.0 miNorth (360°)17.3 mph26.5 mphClear
6:35 PM6.8 °F-0.4 °F72 %30.38 in10.0 miNorth (360°)17.3 mphClear
6:55 PM6.8 °F-2.2 °F67 %30.39 in10.0 miNorth (360°)18.4 mph25.3 mphClear
7:15 PM5.0 °F-4.0 °F66 %30.39 in10.0 miNorth (360°)19.6 mph25.3 mphClear
7:35 PM3.2 °F-5.8 °F66 %30.41 in10.0 miNorth (350°)19.6 mph29.9 mphClear
7:55 PM3.2 °F-5.8 °F66 %30.40 in10.0 miNorth (10°)24.2 mph31.1 mphClear
8:15 PM1.4 °F-9.4 °F61 %30.41 in10.0 miNorth (360°)20.7 mph32.2 mphClear
8:35 PM1.4 °F-7.6 °F66 %30.42 in10.0 miNorth (350°)21.9 mphClear
8:55 PM1.4 °F-9.4 °F61 %30.43 in10.0 miNorth (360°)17.3 mph24.2 mphClear
9:15 PM1.4 °F-9.4 °F61 %30.43 in10.0 miNorth (10°)13.8 mph19.6 mphClear
9:35 PM-0.4 °F-11.2 °F60 %30.43 in10.0 miNorth (10°)18.4 mph25.3 mphClear
9:55 PM-0.4 °F-11.2 °F60 %30.44 in10.0 miNorth (10°)16.1 mph25.3 mphClear
10:15 PM-0.4 °F-11.2 °F60 %30.45 in10.0 miNorth (10°)15.0 mph26.5 mphClear
10:35 PM-0.4 °F-11.2 °F60 %30.46 in10.0 miNorth (10°)17.3 mph24.2 mphClear
10:55 PM-0.4 °F-11.2 °F60 %30.47 in10.0 miNNE (30°)19.6 mphClear
11:15 PM-0.4 °F-13.0 °F55 %30.49 in10.0 miNNE (30°)18.4 mphClear
11:35 PM-2.2 °F-11.2 °F66 %30.49 in10.0 miNNE (30°)17.3 mphClear
11:55 PM-2.2 °F-13.0 °F60 %30.50 in10.0 miNNE (20°)16.1 mphClear
Hourly data recorded from KSLB, located miles away from Ida Grove, Iowa







STORIES FROM OUR PARTNERS